Regional Weather Roundup
Issued by NWS

Home | Current Version | Previous Version | Text Only | Print | Product List | Glossary Off
Versions: 1 2 3 4 5 6 7 8 9 10 11 12 13 14 15 16 17 18 19 20 21 22 23 24 25 26 27 28 29 30 31 32 33 34 35 36 37 38 39 40 41 42 43 44 45 46 47 48 49 50

000
ASUS45 KCYS 292210
RWRWY

WYOMING REGIONAL WEATHER ROUNDUP
NATIONAL WEATHER SERVICE CHEYENNE WY
400 PM MDT FRI JUL 29 2016

NOTE:  "FAIR" INDICATES FEW OR NO CLOUDS BELOW 12,000 FEET
WITH NO SIGNIFICANT WEATHER AND/OR OBSTRUCTIONS TO VISIBILITY.

WYZ001-292300-
YELLOWSTONE NATIONAL PARK

CITY           SKY/WX    TMP DP  RH WIND       PRES   REMARKS
LK YELLOWSTONE   N/A     72  43  35 VRB5      30.26F
W YELLOWSTONE  NOT AVBL

$$
WYZ002>013-054>058-071-098>099-292300-
NORTHERN WYOMING

CITY           SKY/WX    TMP DP  RH WIND       PRES   REMARKS
JACKSON        MOSUNNY   86  30  13 SW9       30.14F
CODY           FAIR      75  48  38 N8        30.09F
GREYBULL       FAIR      92  40  16 NW18G24   29.96F
WORLAND        FAIR      91  44  19 N10       29.97F
SHERIDAN       FAIR      89  44  20 VRB3      30.03F
BUFFALO        FAIR      81  45  28 VRB3      30.10F
GILLETTE       PTSUNNY   82  45  27 N12       30.05F
HULETT         MOCLDY    82  54  36 NE13      30.07F
NEWCASTLE      FAIR      82  43  24 N6        30.04F

$$
WYZ014>020-022>026-101>103-292300-
CENTRAL WYOMING

CITY           SKY/WX    TMP DP  RH WIND       PRES   REMARKS
BIG PINEY      FAIR      87  33  14 NW12      30.17F
PINEDALE       FAIR      79  34  19 CALM      30.19F
DUBOIS         FAIR      81  28  15 NW17      30.17F
LANDER         FAIR      88  48  25 VRB5      30.04F
RIVERTON       FAIR      89  42  19 NE9       30.04F
CASPER         PTSUNNY   82  45  27 NE21G28   30.06F
DOUGLAS        TSTM      71  47  42 NW7       30.11R

$$
WYZ021-027>030-104>119-292300-
SOUTHERN WYOMING

CITY           SKY/WX    TMP DP  RH WIND       PRES   REMARKS
EVANSTON       FAIR      89  30  12 NW14G28   30.22F
KEMMERER         N/A    N/A N/A N/A W23G37    30.22F
FORT BRIDGER   FAIR      90  28  11 NW25G36   30.22F
ROCK SPRINGS   FAIR      89  26  10 W26       30.13F
DIXON          FAIR      89  33  13 W8        30.17F
RAWLINS        FAIR      85  29  13 W13       30.14F
SARATOGA       FAIR      86  30  13 MISG      30.19F
LARAMIE        FAIR      81  31  16 W9        30.19F
CHEYENNE       PTSUNNY   74  51  44 SE26G35   30.12F THUNDER
TORRINGTON     FAIR      79  60  52 E15       30.04S
PINE BLUFFS    LGT RAIN  72  55  56 SE13      30.15R

$$



USA.gov is the U.S. government's official web portal to all federal, state and local government web resources and services.